Date String (YYYY-MM-DD hh:mm:ss) UTC,Instrument flags,absolute air pressure of the measurement (hPa),sample flow rate (lpm),inlet stack bypass flow (lpm),air temperature of the measurement (°C),ambient temperature measured by the external sensor (°C),aerosol sample conditioner tube jacket temperature (°C),OPC LED temperature (°C),internal box temperature (°C),relative humidity of the measurement (%),span deviation,mass concentration of particles derived from Lorenz-Mie calculation of OPC scattering (μg/m³),mass concentration of particles derived from Lorenz-Mie calculation of OPC scattering (μg/m³),mass concentration of particles derived from Lorenz-Mie calculation of OPC scattering (μg/m³)
DateTimeUTC,F1_M11,P_M11,Q1_M11,Q2_M11,T1_M11,T2_M11,T3_M11,T4_M11,T5_M11,U1_M11,ZSPAN_M11,X0_M11,X2_M11,X1_M11
2024-02-21 08:00:00,SystemResetWarning,0828.1,5.01,000.00,024.3,023.6,000.0,032.8,026.2,15.5,0000.0,0006.27,0001.62,0001.15
2024-02-21 08:01:00,SystemResetWarning,0828.1,4.99,000.00,024.3,023.6,000.0,032.8,026.2,15.5,0000.0,0005.28,0001.63,0001.14
2024-02-21 08:02:00,SystemResetWarning,0828.0,5.00,000.00,024.3,023.6,000.0,032.8,026.2,15.4,0000.0,0005.12,0001.61,0001.13
2024-02-21 08:03:00,SystemResetWarning,0827.8,5.00,000.00,024.3,023.6,000.0,032.8,026.2,15.4,0000.0,0005.08,0001.60,0001.12
2024-02-21 08:04:00,SystemResetWarning,0827.8,4.99,000.00,024.3,023.6,000.0,032.9,026.3,15.4,0000.0,0006.09,0001.57,0001.11
2024-02-21 08:05:00,SystemResetWarning,0827.8,4.99,000.00,024.3,023.6,000.0,032.9,026.2,15.4,0000.0,0006.67,0001.56,0001.10
2024-02-21 08:06:00,SystemResetWarning,0827.8,5.00,000.00,024.3,023.6,000.0,032.8,026.2,15.5,0000.0,0006.18,0001.56,0001.11
2024-02-21 08:07:00,SystemResetWarning,0827.8,5.00,000.00,024.3,023.6,000.0,032.9,026.3,15.6,0000.0,0005.84,0001.57,0001.11
2024-02-21 08:08:00,SystemResetWarning,0827.8,5.00,000.00,024.4,023.7,000.0,032.9,026.3,15.6,0000.0,0004.93,0001.56,0001.12
2024-02-21 08:09:00,SystemResetWarning,0827.7,5.00,000.00,024.4,023.7,000.0,032.8,026.3,15.6,0000.0,0005.57,0001.59,0001.15
2024-02-21 08:10:00,SystemResetWarning,0827.8,5.00,000.00,024.4,023.7,000.0,032.8,026.3,15.6,0000.0,0007.36,0001.65,0001.17
2024-02-21 08:11:00,SystemResetWarning,0827.7,5.00,000.00,024.4,023.6,000.0,032.8,026.3,15.6,0000.0,0007.60,0001.67,0001.17
2024-02-21 08:12:00,SystemResetWarning,0827.8,5.01,000.00,024.3,023.6,000.0,032.8,026.2,15.4,0000.0,0007.55,0001.62,0001.18
2024-02-21 08:13:00,SystemResetWarning,0827.7,5.00,000.00,024.3,023.6,000.0,032.8,026.2,15.3,0000.0,0007.80,0001.64,0001.19
2024-02-21 08:14:00,SystemResetWarning,0827.8,4.99,000.00,024.3,023.6,000.0,032.8,026.2,15.2,0000.0,0007.98,0001.63,0001.19
2024-02-21 08:15:00,SystemResetWarning,0827.8,5.00,000.00,024.3,023.6,000.0,032.8,026.2,15.5,0000.0,0007.54,0001.65,0001.19
2024-02-21 08:16:00,SystemResetWarning,0827.8,5.00,000.00,024.3,023.6,000.0,032.8,026.2,15.6,0000.0,0007.39,0001.65,0001.18
2024-02-21 08:17:00,SystemResetWarning,0827.8,4.99,000.00,024.3,023.6,000.0,032.8,026.2,15.6,0000.0,0007.88,0001.69,0001.18
2024-02-21 08:18:00,SystemResetWarning,0827.8,5.00,000.00,024.3,023.6,000.0,032.8,026.2,15.6,0000.0,0007.98,0001.72,0001.17
2024-02-21 08:19:00,SystemResetWarning,0827.8,5.00,000.00,024.3,023.6,000.0,032.8,026.2,15.6,0000.0,0008.32,0001.73,0001.16
2024-02-21 08:20:00,SystemResetWarning,0827.7,5.00,000.00,024.3,023.6,000.0,032.8,026.2,15.6,0000.0,0007.96,0001.71,0001.14
2024-02-21 08:21:00,SystemResetWarning,0827.7,5.00,000.00,024.3,023.6,000.0,032.8,026.2,15.6,0000.0,0006.52,0001.66,0001.13
2024-02-21 08:22:00,SystemResetWarning,0827.7,5.00,000.00,024.3,023.6,000.0,032.8,026.2,15.6,0000.0,0006.10,0001.65,0001.13
2024-02-21 08:23:00,SystemResetWarning,0827.8,5.01,000.00,024.3,023.6,000.0,032.8,026.2,15.6,0000.0,0006.27,0001.65,0001.12
2024-02-21 08:24:00,SystemResetWarning,0827.8,5.01,000.00,024.3,023.6,000.0,032.8,026.1,15.6,0000.0,0006.07,0001.63,0001.13
2024-02-21 08:25:00,SystemResetWarning,0827.7,5.00,000.00,024.3,023.6,000.0,032.8,026.1,15.8,0000.0,0005.77,0001.64,0001.13
2024-02-21 08:26:00,SystemResetWarning,0827.8,5.00,000.00,024.3,023.5,000.0,032.8,026.1,15.9,0000.0,0005.58,0001.71,0001.14
2024-02-21 08:27:00,SystemResetWarning,0827.8,5.00,000.00,024.2,023.5,000.0,032.8,026.1,15.9,0000.0,0005.51,0001.71,0001.15
2024-02-21 08:28:00,SystemResetWarning,0827.8,5.00,000.00,024.2,023.5,000.0,032.8,026.1,16.0,0000.0,0004.63,0001.67,0001.15
2024-02-21 08:29:00,SystemResetWarning,0827.8,4.99,000.00,024.2,023.5,000.0,032.8,026.1,16.1,0000.0,0004.65,0001.64,0001.18
2024-02-21 08:30:00,SystemResetWarning,0827.7,5.00,000.00,024.2,023.5,000.0,032.8,026.1,16.2,0000.0,0004.49,0001.67,0001.20
2024-02-21 08:31:00,SystemResetWarning,0827.7,5.00,000.00,024.2,023.5,000.0,032.8,026.1,16.2,0000.0,0004.19,0001.69,0001.23
2024-02-21 08:32:00,SystemResetWarning,0827.7,5.01,000.00,024.2,023.5,000.0,032.8,026.1,16.1,0000.0,0004.68,0001.72,0001.24
2024-02-21 08:33:00,SystemResetWarning,0827.7,4.99,000.00,024.2,023.5,000.0,032.7,026.1,16.2,0000.0,0004.90,0001.81,0001.26
2024-02-21 08:34:00,SystemResetWarning,0827.7,5.00,000.00,024.2,023.5,000.0,032.7,026.1,16.2,0000.0,0004.96,0001.90,0001.29
2024-02-21 08:35:00,SystemResetWarning,0827.7,5.00,000.00,024.2,023.5,000.0,032.7,026.1,16.1,0000.0,0004.90,0001.93,0001.30
2024-02-21 08:36:00,SystemResetWarning,0827.7,4.99,000.00,024.2,023.5,000.0,032.7,026.1,16.1,0000.0,0004.94,0001.93,0001.30
2024-02-21 08:37:00,SystemResetWarning,0827.7,5.00,000.00,024.2,023.5,000.0,032.7,026.1,16.0,0000.0,0004.98,0001.94,0001.32
2024-02-21 08:38:00,SystemResetWarning,0827.7,5.00,000.00,024.2,023.5,000.0,032.7,026.1,15.9,0000.0,0004.97,0001.96,0001.34
2024-02-21 08:39:00,SystemResetWarning,0827.7,5.01,000.00,024.2,023.5,000.0,032.7,026.1,15.8,0000.0,0004.91,0001.99,0001.37
2024-02-21 08:40:00,SystemResetWarning,0827.7,5.01,000.00,024.2,023.5,000.0,032.7,026.1,15.8,0000.0,0004.66,0002.03,0001.39
2024-02-21 08:41:00,SystemResetWarning,0827.7,4.99,000.00,024.2,023.5,000.0,032.7,026.1,15.8,0000.0,0004.43,0002.05,0001.40
2024-02-21 08:42:00,SystemResetWarning,0827.7,4.99,000.00,024.2,023.5,000.0,032.7,026.1,15.9,0000.0,0005.97,0002.07,0001.41
2024-02-21 08:43:00,SystemResetWarning,0827.7,5.00,000.00,024.2,023.5,000.0,032.7,026.1,16.0,0000.0,0006.65,0002.06,0001.42
2024-02-21 08:44:00,SystemResetWarning,0827.7,5.00,000.00,024.2,023.5,000.0,032.7,026.1,16.1,0000.0,0006.80,0002.00,0001.43
2024-02-21 08:45:00,SystemResetWarning,0827.7,5.00,000.00,024.2,023.5,000.0,032.7,026.0,16.1,0000.0,0006.87,0002.02,0001.43
2024-02-21 08:46:00,SystemResetWarning,0827.6,5.00,000.00,024.2,023.5,000.0,032.7,026.1,16.0,0000.0,0007.02,0002.01,0001.43
2024-02-21 08:47:00,SystemResetWarning,0827.6,5.01,000.00,024.2,023.5,000.0,032.7,026.1,16.1,0000.0,0007.02,0002.01,0001.44
2024-02-21 08:48:00,SystemResetWarning,0827.6,5.00,000.00,024.2,023.4,000.0,032.7,026.1,16.2,0000.0,0007.00,0001.96,0001.42
2024-02-21 08:49:00,SystemResetWarning,0827.7,5.00,000.00,024.2,023.4,000.0,032.7,026.0,16.2,0000.0,0007.04,0001.95,0001.40
2024-02-21 08:50:00,SystemResetWarning,0827.7,5.00,000.00,024.2,023.4,000.0,032.7,026.1,16.2,0000.0,0007.03,0001.94,0001.39
2024-02-21 08:51:00,SystemResetWarning,0827.7,4.99,000.00,024.2,023.4,000.0,032.7,026.1,16.2,0000.0,0007.09,0001.92,0001.37
2024-02-21 08:52:00,SystemResetWarning,0827.7,4.99,000.00,024.2,023.4,000.0,032.7,026.1,16.2,0000.0,0007.62,0001.93,0001.37
2024-02-21 08:53:00,SystemResetWarning,0827.7,5.00,000.00,024.2,023.4,000.0,032.7,026.0,16.2,0000.0,0007.04,0001.92,0001.36
2024-02-21 08:54:00,SystemResetWarning,0827.7,5.00,000.00,024.2,023.4,000.0,032.7,026.0,16.1,0000.0,0006.47,0001.95,0001.36
2024-02-21 08:55:00,SystemResetWarning,0827.7,5.01,000.00,024.2,023.4,000.0,032.7,026.0,16.0,0000.0,0006.35,0001.97,0001.36
2024-02-21 08:56:00,SystemResetWarning,0827.6,5.01,000.00,024.2,023.4,000.0,032.7,026.0,16.0,0000.0,0005.99,0001.88,0001.35
2024-02-21 08:57:00,SystemResetWarning,0827.5,5.00,000.00,024.2,023.4,000.0,032.7,026.0,16.0,0000.0,0005.81,0001.87,0001.35
2024-02-21 08:58:00,SystemResetWarning,0827.5,5.00,000.00,024.2,023.4,000.0,032.7,026.0,16.0,0000.0,0006.09,0001.89,0001.36
2024-02-21 08:59:00,SystemResetWarning,0827.7,4.99,000.00,024.2,023.4,000.0,032.7,026.0,16.0,0000.0,0006.30,0001.96,0001.38
